Location: Nied?wied?
(53.3665°N, 14.8184°E)
Time: 23:28:53
(UTC+00:00)

Okean 1 - Pass Details

Date: 03 March 2021
Orbit: 539 x 554 km, 82.5° (Epoch: 12 April)

Event Time Altitude Azimuth Distance (km) Brightness Sun altitude
Rises 17:51:44 0° 346° (NNW) 2,733 7.1 -11.1°
Reaches altitude 10° 17:53:55 10° 343° (NNW) 1,837 6.3 -11.4°
Maximum altitude 17:57:55 64° 263° (W) 619 3.8 -12.0°
Drops below altitude 10° 18:01:54 10° 182° (S) 1,829 5.9 -12.6°
Sets 18:04:04 0° 179° (S) 2,720 6.8 -12.9°
